Location: Follega
(52.8850°N, 5.7362°E)
Time: 22:44:02
(UTC+00:00)

Cosmos 1470 - Pass Details

Date: 01 June 2020
Orbit: 520 x 543 km, 82.5° (Epoch: 04 July)

Event Time Altitude Azimuth Distance (km) Brightness Sun altitude
Rises 22:03:50 0° 347° (NNW) 2,672 8.3 -12.3°
Reaches altitude 10° 22:05:59 10° 346° (NNW) 1,775 6.9 -12.4°
Maximum altitude 22:09:52 75° 262° (W) 547 2.8 -12.7°
Enters shadow 22:12:29 20° 179° (S) 1,260 4.1 -12.8°
